[[{"header":{"parameterUnit":"m.s-1","parameterCategory":1,"la1":30.2991,"la2":30.254,"lo1":-89.0895,"lo2":-89.0444,"dy":0.0017,"dx":0.0017,"nx":28,"ny":28,"refTime":"2024-12-23T09:00:00:Z","depth":0,"parameterNumber":2,"parameterNumberName":"U-component_of_WINDS"},"data":[0,0,0,0,0,0,0,0,0,0,0,0,0,0,0,0,0,0,0,0,0,0,0,0,0,0,0,0,0,0,0,0,0,0,0,0,0,0,0,0,0,0,0,0,0,0,0,0,0,0,0,0,0,0,0,0,0,0,-2.7506,-2.7506,0,-2.7549,-2.7549,-2.755,-2.7444,-2.7441,-2.7437,-2.7434,-2.7479,-2.7483,-2.7487,0,0,0,0,0,0,0,0,0,0,0,0,0,-2.7331,-2.7334,-2.7506,-2.7506,-2.7507,-2.7549,-2.755,-2.755,-2.7445,-2.744,-2.7436,-2.7433,-2.7477,-2.7482,-2.7487,0,0,0,0,0,0,0,0,0,0,0,0,0,-2.7394,-2.7336,-2.7506,-2.7459,-2.7455,-2.7549,-2.755,-2.755,-2.7445,-2.744,-2.7435,-2.7431,-2.7476,-2.7482,-2.7488,-2.7629,0,0,-2.7508,-2.7511,0,0,0,0,0,0,0,0,-2.739,-2.74,-2.7465,-2.7463,-2.7459,-2.7486,-2.7504,-2.7577,-2.7447,-2.7449,-2.7434,-2.7428,-2.7485,-2.749,-2.751,-2.7631,-2.7633,-2.7509,-2.7512,-2.7515,-2.7517,0,0,0,0,0,0,0,-2.7386,-2.7398,-2.7523,-2.7467,-2.7462,-2.7436,-2.7439,-2.7517,-2.7495,-2.7449,-2.7441,-2.7448,-2.7482,-2.7504,-2.751,-2.7633,-2.7508,-2.7514,-2.7518,-2.7521,-2.7871,-2.7876,0,0,0,0,0,0,-2.7388,-2.7395,-2.7521,-2.7524,-2.7411,-2.7443,-2.7447,-2.7482,-2.7494,-2.7491,-2.7452,-2.7442,-2.7495,-2.7502,-2.7511,-2.7676,-2.7515,-2.7521,-2.7525,-2.7865,-2.7872,-2.7878,0,0,0,0,0,0,-2.7384,-2.74,-2.752,-2.7457,-2.7471,-2.7451,-2.7492,-2.7486,-2.7507,-2.7496,-2.7492,-2.7478,-2.7491,-2.7502,-2.76,-2.7676,-2.7524,-2.753,-2.7859,-2.7867,-2.7875,-2.8008,0,0,0,0,0,0,-2.738,-2.7399,-2.7453,-2.7459,-2.7474,-2.7609,-2.7497,-2.749,-2.7518,-2.7507,-2.7519,-2.7517,-2.7488,-2.7591,-2.7606,-2.7682,-2.7535,-2.7852,-2.7863,-2.7872,-2.7997,-2.8019,-2.8039,0,0,0,0,0,-2.7374,-2.7489,-2.7456,-2.7472,-2.7541,-2.7613,-2.7622,-2.7587,-2.7525,-2.7579,-2.7571,-2.7516,-2.7665,-2.7602,-2.7618,-2.7697,-2.7847,-2.786,-2.7872,-2.7987,-2.8015,-2.8039,0,0,0,0,0,0,-2.7492,-2.7489,-2.7453,-2.7573,-2.7594,-2.7595,-2.7662,-2.7618,-2.7657,-2.7644,-2.7599,-2.7602,-2.7709,-2.7712,-2.7642,-2.7833,-2.7745,-2.7762,-2.7828,-2.7854,-2.7875,-2.7872,-2.754,0,0,0,0,0,-2.7532,-2.7592,-2.7585,-2.7692,-2.7704,-2.7682,-2.7712,-2.7683,-2.7703,-2.7711,-2.7711,-2.7733,-2.7784,-2.7819,-2.7866,-2.7996,-2.7997,-2.8058,-2.8079,-2.8097,-2.8112,-2.8181,-2.8208,-2.7918,-2.7918,-2.7918,0,0,-2.7616,-2.7621,-2.7662,-2.7716,-2.7729,-2.7791,-2.769,-2.776,-2.7806,-2.7722,-2.7815,-2.7815,-2.7836,-2.7951,-2.8001,-2.7957,-2.8192,-2.8112,-2.8127,-2.8132,-2.8196,-2.8223,-2.8248,-2.7926,-2.7925,-2.7923,0,0,-2.78,-2.781,-2.79,-2.7915,-2.7936,-2.7919,-2.7941,-2.7949,-2.7946,-2.8038,-2.7976,-2.8029,-2.8119,-2.8136,-2.8157,-2.8346,-2.8297,-2.8362,-2.8474,-2.8542,-2.8564,-2.8584,-2.8652,-2.8677,-2.8377,-2.8377,-2.8377,0,-2.7902,-2.7993,-2.7952,-2.8027,-2.8052,-2.7978,-2.8069,-2.8085,-2.8121,-2.814,-2.8089,-2.82,-2.8209,-2.8326,-2.8372,-2.8391,-2.8414,-2.8361,-2.8564,-2.8584,-2.8602,-2.8666,-2.8692,-2.8385,-2.8384,-2.8383,-2.8383,0,-2.8117,-2.8181,-2.8251,-2.8287,-2.832,-2.8402,-2.8373,-2.8412,-2.838,-2.8369,-2.8463,-2.8471,-2.8517,-2.8543,-2.8512,-2.8656,-2.8628,-2.8572,-2.8483,-2.8638,-2.8698,-2.8722,-2.8396,-2.8393,-2.8391,-2.8389,0,0,-2.8378,-2.8389,-2.8416,-2.8431,-2.8448,-2.8496,-2.8575,-2.862,-2.8654,-2.868,-2.8745,-2.8822,-2.8769,-2.8793,-2.8763,-2.8822,-2.8972,-2.8758,-2.8758,-2.8799,-2.9131,-2.9174,-2.9203,-2.8939,-2.8943,-2.8947,-2.9129,0,-2.8561,-2.8696,-2.8661,-2.8795,-2.8854,-2.8784,-2.8852,-2.8869,-2.8861,-2.8909,-2.8899,-2.8954,-2.8881,-2.8895,-2.895,-2.8942,-2.9038,-2.8928,-2.8999,-2.9002,-2.8997,-2.9234,-2.928,-2.9452,-2.9152,-2.9156,-2.9159,0,-2.8792,-2.8827,-2.8968,-2.8974,-2.8997,-2.9059,-2.9098,-2.9144,-2.9162,-2.9152,-2.9178,-2.9135,-2.9212,-2.9122,-2.9226,-2.9153,-2.9179,-2.9179,-2.9185,-2.9191,-2.9091,-2.9248,-2.9506,-2.9532,-2.9195,-2.9192,-2.919,0,-2.897,-2.9052,-2.9146,-2.9161,-2.9171,-2.9216,-2.9222,-2.9235,-2.9264,-2.9297,-2.9316,-2.9358,-2.9381,-2.9414,-2.9384,-2.9321,-2.9494,-2.9401,-2.9488,-2.9489,-2.9528,-2.9527,-2.9796,-2.9544,-2.9544,-2.9543,-2.9543,0,-2.9178,-2.9267,-2.9226,-2.9285,-2.9381,-2.934,-2.9437,-2.9434,-2.9446,-2.9503,-2.9444,-2.9498,-2.9455,-2.9505,-2.9482,-2.9572,-2.9583,-2.9576,-2.9569,-2.9582,-2.9583,-2.96,-2.9588,-2.955,-2.9549,-2.9547,-2.9546,0,-2.9394,-2.937,-2.9468,-2.9469,-2.9471,-2.9543,-2.9543,-2.9597,-2.9583,-2.9655,-2.9669,-2.9648,-2.9704,-2.9677,-2.9735,-2.9719,-2.9836,-2.9812,-2.983,-2.9825,-2.9913,-2.9905,-3.0203,-3.024,-2.9964,-2.9967,-2.9969,0,-2.9529,-2.9595,-2.9603,-2.9636,-2.9647,-2.9701,-2.9731,-2.9691,-2.9724,-2.9749,-2.98,-2.985,-2.9889,-2.9981,-2.997,-3.0014,-2.9992,-3.0093,-2.9998,-3.0009,-2.9994,-2.9991,-2.9997,-3.0113,-3.0116,-3.0119,-3.0121,0,-2.9771,-2.9756,-2.9801,-2.9842,-2.9878,-2.9909,-2.9934,-2.9964,-2.9925,-2.9965,-3.0022,-3.0051,-3.011,-3.0161,-3.0199,-3.0204,-3.0157,-3.015,-3.0173,-3.0187,-3.0195,-3.0193,-2.9883,-3.0144,-3.0142,-3.014,-3.0139,-3.0138,-2.9951,-3.0007,-3.0021,-3.0072,-3.0087,-3.0112,-3.0162,-3.0154,-3.02,-3.0245,-3.0219,-3.0285,-3.0299,-3.0345,-3.0357,-3.0408,-3.0367,-3.04,-3.0408,-3.0417,-3.0429,-3.0186,-3.0414,-3.0413,-3.0413,-3.0412,-3.0412,0,-3.0191,-3.0196,-3.0244,-3.0281,-3.0321,-3.0272,-3.0297,-3.0334,-3.0393,-3.041,-3.0449,-3.0513,-3.0562,-3.0555,-3.0599,-3.0641,-3.062,-3.0654,-3.0651,-3.0653,-3.0463,-3.0439,-3.067,-3.067,-3.067,-3.067,-3.067,-3.067,-3.0321,-3.0412,-3.0399,-3.0497,-3.05,-3.0565,-3.0583,-3.0605,-3.0619,-3.0694,-3.0734,-3.0728,-3.0736,-3.078,-3.0822,-3.0819,-3.0838,-3.0881,-3.0869,-3.0692,-3.0666,-3.0642,-3.062,-3.0885,-3.0885,-3.1055,-3.1057,-3.1058]},{"header":{"parameterUnit":"m.s-1","parameterCategory":1,"la1":30.2991,"la2":30.254,"lo1":-89.0895,"lo2":-89.0444,"dy":0.0017,"dx":0.0017,"nx":28,"ny":28,"refTime":"2024-12-23T09:00:00:Z","depth":0,"parameterNumber":3,"parameterNumberName":"V-component_of_WINDS"},"data":[0,0,0,0,0,0,0,0,0,0,0,0,0,0,0,0,0,0,0,0,0,0,0,0,0,0,0,0,0,0,0,0,0,0,0,0,0,0,0,0,0,0,0,0,0,0,0,0,0,0,0,0,0,0,0,0,0,0,-4.0115,-4.0116,0,-4.0191,-4.0192,-4.0193,-4.0153,-4.0151,-4.0149,-4.0147,-4.022,-4.0224,-4.0227,0,0,0,0,0,0,0,0,0,0,0,0,0,-3.9931,-3.9934,-4.0115,-4.0116,-4.0117,-4.0191,-4.0192,-4.0193,-4.0154,-4.0151,-4.0149,-4.0147,-4.0219,-4.0223,-4.0228,0,0,0,0,0,0,0,0,0,0,0,0,0,-4.0009,-3.9935,-4.0115,-4.0107,-4.0107,-4.0191,-4.0192,-4.0193,-4.0154,-4.0151,-4.0148,-4.0145,-4.0217,-4.0223,-4.0228,-4.0324,0,0,-4.0246,-4.0248,0,0,0,0,0,0,0,0,-4.0005,-4.0016,-4.0107,-4.0107,-4.0108,-4.016,-4.0153,-4.0237,-4.0155,-4.0136,-4.0147,-4.0144,-4.0202,-4.0209,-4.0229,-4.0327,-4.033,-4.0246,-4.025,-4.0252,-4.0254,0,0,0,0,0,0,0,-3.9999,-4.0012,-4.0145,-4.0108,-4.0109,-4.0097,-4.0105,-4.0169,-4.0185,-4.0137,-4.0135,-4.0144,-4.0202,-4.0224,-4.0231,-4.0331,-4.0246,-4.0251,-4.0255,-4.0257,-4.0508,-4.0511,0,0,0,0,0,0,-3.9995,-4.0008,-4.0143,-4.0147,-4.0048,-4.0103,-4.0112,-4.0146,-4.0184,-4.0187,-4.0147,-4.0142,-4.0216,-4.0224,-4.0233,-4.0346,-4.0252,-4.0257,-4.0261,-4.0505,-4.0509,-4.0513,0,0,0,0,0,0,-3.9991,-4.0007,-4.014,-4.0077,-4.0093,-4.0109,-4.0148,-4.0149,-4.0171,-4.0191,-4.0193,-4.0168,-4.0214,-4.0225,-4.0301,-4.0348,-4.026,-4.0265,-4.0501,-4.0506,-4.0511,-4.0573,0,0,0,0,0,0,-3.9986,-4.0006,-4.0044,-4.0078,-4.0097,-4.0209,-4.0151,-4.0153,-4.0182,-4.0177,-4.0211,-4.0214,-4.0212,-4.0293,-4.0307,-4.0354,-4.027,-4.0497,-4.0504,-4.0509,-4.0567,-4.0579,-4.059,0,0,0,0,0,-3.998,-4.0058,-4.0046,-4.0063,-4.0145,-4.0211,-4.0222,-4.022,-4.0186,-4.0223,-4.0235,-4.0213,-4.0341,-4.0301,-4.0317,-4.0366,-4.0494,-4.0502,-4.0509,-4.0562,-4.0577,-4.059,0,0,0,0,0,0,-4.0027,-4.0062,-4.005,-4.0142,-4.0174,-4.0205,-4.0251,-4.0236,-4.0277,-4.027,-4.0265,-4.0273,-4.0352,-4.0366,-4.0322,-4.0459,-4.0412,-4.0423,-4.0447,-4.0461,-4.0473,-4.0467,-4.0274,0,0,0,0,0,-4.0049,-4.0102,-4.0129,-4.0208,-4.0225,-4.0235,-4.0264,-4.026,-4.0293,-4.0305,-4.0323,-4.0354,-4.0401,-4.0432,-4.0477,-4.0569,-4.0574,-4.061,-4.0622,-4.0631,-4.064,-4.0688,-4.0704,-4.0537,-4.0537,-4.0536,0,0,-4.0094,-4.0119,-4.0153,-4.0218,-4.0242,-4.0295,-4.0247,-4.0306,-4.0344,-4.0314,-4.0387,-4.0401,-4.0435,-4.0519,-4.0557,-4.0534,-4.0688,-4.0641,-4.0648,-4.0652,-4.0697,-4.0713,-4.0727,-4.0542,-4.0541,-4.054,0,0,-4.0202,-4.0227,-4.0295,-4.0321,-4.0359,-4.0365,-4.0381,-4.0414,-4.0423,-4.0496,-4.0474,-4.0519,-4.0601,-4.0625,-4.0648,-4.0764,-4.0744,-4.0779,-4.084,-4.0886,-4.0899,-4.0911,-4.0951,-4.0965,-4.0788,-4.0788,-4.0788,0,-4.0252,-4.0333,-4.0331,-4.0392,-4.042,-4.0396,-4.0463,-4.0487,-4.0537,-4.0556,-4.053,-4.0631,-4.0652,-4.0741,-4.0769,-4.0789,-4.0806,-4.0775,-4.0898,-4.091,-4.092,-4.0958,-4.0974,-4.0792,-4.0792,-4.0791,-4.0791,0,-4.0392,-4.0448,-4.0498,-4.0548,-4.0582,-4.0645,-4.0651,-4.0685,-4.0678,-4.0686,-4.076,-4.0785,-4.0833,-4.0854,-4.0847,-4.0941,-4.0925,-4.0899,-4.0851,-4.094,-4.0976,-4.099,-4.0798,-4.0796,-4.0795,-4.0794,0,0,-4.0532,-4.0581,-4.0599,-4.0621,-4.066,-4.0703,-4.0764,-4.0813,-4.0841,-4.0876,-4.0926,-4.0995,-4.097,-4.0996,-4.0992,-4.1033,-4.1121,-4.1001,-4.1002,-4.1021,-4.1225,-4.1244,-4.1261,-4.1108,-4.1111,-4.1113,-4.1221,0,-4.0642,-4.0752,-4.0751,-4.0851,-4.0902,-4.0879,-4.0932,-4.0961,-4.097,-4.1013,-4.1022,-4.1071,-4.1036,-4.1051,-4.1091,-4.1102,-4.1162,-4.1094,-4.1153,-4.1155,-4.1144,-4.1279,-4.13,-4.1401,-4.1235,-4.1238,-4.1239,0,-4.0785,-4.0826,-4.0932,-4.0963,-4.0984,-4.1032,-4.1075,-4.1117,-4.1149,-4.1152,-4.1182,-4.117,-4.123,-4.1181,-4.1262,-4.1216,-4.124,-4.1248,-4.1252,-4.1257,-4.1202,-4.1286,-4.1433,-4.1448,-4.1261,-4.126,-4.1258,0,-4.0876,-4.0957,-4.103,-4.1049,-4.1088,-4.1122,-4.1139,-4.1168,-4.1196,-4.1234,-4.1252,-4.1295,-4.1319,-4.1352,-4.1351,-4.1316,-4.1433,-4.1384,-4.1435,-4.1436,-4.146,-4.1459,-4.1612,-4.1478,-4.1477,-4.1477,-4.1477,0,-4.0998,-4.1063,-4.1071,-4.1116,-4.1187,-4.1185,-4.1255,-4.1269,-4.1294,-4.1339,-4.1322,-4.1365,-4.1362,-4.1405,-4.1405,-4.1471,-4.1482,-4.1485,-4.1484,-4.1486,-4.1485,-4.15,-4.1493,-4.1481,-4.148,-4.148,-4.1479,0,-4.1111,-4.1119,-4.1197,-4.1227,-4.1236,-4.1287,-4.1312,-4.1353,-4.1361,-4.1419,-4.1432,-4.1443,-4.1492,-4.1495,-4.1552,-4.1551,-4.1631,-4.1623,-4.1621,-4.1619,-4.167,-4.1665,-4.1837,-4.1859,-4.1712,-4.1713,-4.1714,0,-4.1188,-4.1237,-4.1273,-4.1303,-4.1322,-4.1371,-4.14,-4.1399,-4.143,-4.1469,-4.1505,-4.1553,-4.1591,-4.167,-4.1682,-4.1724,-4.1716,-4.1774,-4.1722,-4.1722,-4.1715,-4.1712,-4.1716,-4.1783,-4.1785,-4.1786,-4.1787,0,-4.1323,-4.1324,-4.1369,-4.1414,-4.145,-4.1485,-4.1518,-4.1543,-4.1545,-4.158,-4.1631,-4.1661,-4.1718,-4.1765,-4.1806,-4.1821,-4.1804,-4.1804,-4.1817,-4.182,-4.1816,-4.1817,-4.1647,-4.1799,-4.1798,-4.1797,-4.1797,-4.1796,-4.1419,-4.1462,-4.1493,-4.1542,-4.1567,-4.1598,-4.1638,-4.1651,-4.1694,-4.1742,-4.1738,-4.1794,-4.1821,-4.1875,-4.1894,-4.1936,-4.1916,-4.1936,-4.1941,-4.1946,-4.1951,-4.181,-4.1943,-4.1943,-4.1943,-4.1942,-4.1942,0,-4.1552,-4.1572,-4.1617,-4.1664,-4.1702,-4.1684,-4.1719,-4.1751,-4.1801,-4.183,-4.1868,-4.1925,-4.1969,-4.1985,-4.2028,-4.2058,-4.2051,-4.207,-4.2067,-4.207,-4.1967,-4.195,-4.2075,-4.2075,-4.2074,-4.2074,-4.2074,-4.2074,-4.1626,-4.1697,-4.1702,-4.1783,-4.1801,-4.1857,-4.1878,-4.1906,-4.1928,-4.1993,-4.2031,-4.2041,-4.2064,-4.2108,-4.2148,-4.2151,-4.2167,-4.2188,-4.2188,-4.2091,-4.2078,-4.2065,-4.2049,-4.2192,-4.2192,-4.2288,-4.2289,-4.2289]}]]